DB0LHR-6 Weather Reports


time (UTC)temp
C
wind
direction
speed
KPH
gust
KPH
rain 1hr
cm
rain 24hr
cm
rain mn
cm
humidity
%
barometer
mb
20260506184616 10 166 3.2 0.0 0.00 0.00 0.00 96 1009.0
20260506183116 10 152 4.8 0.0 0.00 0.00 0.00 95 1009.0
20260506181616 10 222 0.0 0.0 0.00 0.00 0.00 95 1008.0
20260506180116 10 322 0.0 0.0 0.00 0.00 0.00 94 1008.0
20260506174616 10 210 0.0 0.0 0.00 0.00 0.00 94 1008.0
20260506173116 11 176 0.0 0.0 0.00 0.00 0.00 93 1008.0
20260506171616 11 273 1.6 0.0 0.00 0.00 0.00 92 1008.0
20260506170116 11 186 0.0 0.0 0.00 0.00 0.00 90 1008.0
20260506164616 11 328 0.0 0.0 0.00 0.00 0.00 89 1008.0
20260506163116 11 203 0.0 0.0 0.00 0.00 0.00 89 1008.0
20260506161616 11 218 4.8 0.0 0.00 0.00 0.00 89 1008.0
20260506160116 11 156 0.0 0.0 0.00 0.00 0.00 89 1008.0
20260506154616 12 160 6.4 0.0 0.00 0.00 0.00 89 1008.0
20260506153116 12 174 0.0 0.0 0.00 0.00 0.00 89 1008.0
20260506151616 12 327 4.8 0.0 0.00 0.00 0.00 89 1008.0
20260506150116 12 160 22.5 0.0 0.00 0.00 0.00 87 1008.0
20260506144616 12 213 3.2 0.0 0.00 0.00 0.00 86 1008.0
20260506143116 12 174 4.8 0.0 0.00 0.00 0.00 82 1008.0
20260506141616 12 222 4.8 0.0 0.00 0.00 0.00 78 1008.0
20260506140116 13 232 3.2 0.0 0.00 0.00 0.00 74 1007.0
20260506134616 13 313 3.2 0.0 0.00 0.00 0.00 76 1007.0
20260506133116 13 130 8.0 0.0 0.00 0.00 0.00 78 1007.0
20260506131616 14 185 6.4 0.0 0.00 0.00 0.00 81 1007.0
20260506130116 14 184 8.0 0.0 0.00 0.00 0.00 78 1007.0
20260506124616 15 328 1.6 0.0 0.00 0.00 0.00 71 1007.0
20260506123116 15 211 0.0 0.0 0.00 0.00 0.00 70 1007.0
20260506121616 16 188 3.2 0.0 0.00 0.00 0.00 70 1007.0
20260506120116 16 192 1.6 0.0 0.00 0.00 0.00 63 1006.0
20260506114616 16 189 12.9 0.0 0.00 0.00 0.00 60 1006.0
20260506113116 17 332 0.0 0.0 0.00 0.00 0.00 56 1006.0
20260506111616 17 195 0.0 0.0 0.00 0.00 0.00 55 1006.0
20260506110116 17 168 0.0 0.0 0.00 0.00 0.00 53 1007.0
20260506104616 17 215 0.0 0.0 0.00 0.00 0.00 55 1007.0
20260506103116 17 247 0.0 0.0 0.00 0.00 0.00 55 1006.0
20260506101616 18 221 0.0 0.0 0.00 0.00 0.00 52 1007.0
20260506100116 18 204 0.0 0.0 0.00 0.00 0.00 50 1007.0
20260506094616 17 253 0.0 0.0 0.00 0.00 0.00 54 1007.0
20260506093116 17 234 0.0 0.0 0.00 0.00 0.00 54 1007.0
20260506091616 18 148 0.0 0.0 0.00 0.00 0.00 53 1007.0
20260506090116 18 330 0.0 0.0 0.00 0.00 0.00 52 1006.0
20260506084616 18 318 3.2 0.0 0.00 0.00 0.00 51 1006.0
20260506083116 17 223 4.8 0.0 0.00 0.00 0.00 55 1006.0
20260506081616 17 215 1.6 0.0 0.00 0.00 0.00 60 1006.0
20260506080116 17 182 0.0 0.0 0.00 0.00 0.00 58 1006.0
20260506073116 16 185 6.4 0.0 0.00 0.00 0.00 64 1006.0
20260506071616 15 179 0.0 0.0 0.00 0.00 0.00 66 1006.0
20260506070116 15 145 6.4 0.0 0.00 0.00 0.00 71 1006.0
20260506061616 14 227 0.0 0.0 0.00 0.00 0.00 89 1006.0
20260506060116 13 166 0.0 0.0 0.00 0.00 0.00 91 1006.0
20260506050116 10 170 0.0 0.0 0.00 0.00 0.00 93 1007.0
20260506044616 10 122 0.0 0.0 0.00 0.00 0.00 93 1007.0
20260506043116 10 312 0.0 0.0 0.00 0.00 0.00 92 1007.0
20260506041616 10 152 0.0 0.0 0.00 0.00 0.00 92 1007.0
20260506040116 10 113 0.0 0.0 0.00 0.00 0.00 91 1007.0
20260506034616 10 136 0.0 0.0 0.00 0.00 0.00 90 1007.0
20260506033116 10 124 0.0 0.0 0.00 0.00 0.00 90 1007.0
20260506031616 10 123 0.0 0.0 0.00 0.00 0.00 89 1007.0
20260506030116 10 154 0.0 0.0 0.00 0.00 0.00 88 1007.0
20260506024616 11 182 0.0 0.0 0.00 0.00 0.00 89 1007.0
20260506023116 11 201 0.0 0.0 0.00 0.00 0.00 90 1007.0
20260506021616 11 199 0.0 0.0 0.00 0.00 0.00 91 1007.0
20260506020116 11 177 0.0 0.0 0.00 0.00 0.00 92 1008.0
20260506014615 11 168 0.0 0.0 0.00 0.00 0.00 92 1008.0
20260506013116 11 135 0.0 0.0 0.00 0.00 0.00 91 1007.0
20260506011616 11 154 0.0 0.0 0.00 0.00 0.00 91 1007.0
20260506010116 11 169 0.0 0.0 0.00 0.00 0.00 91 1008.0
20260506004616 11 145 0.0 0.0 0.00 0.00 0.00 91 1008.0
20260506003116 11 172 0.0 0.0 0.00 0.00 0.00 91 1008.0
20260506001616 11 165 0.0 0.0 0.00 0.00 0.00 91 1008.0
20260506000116 11 170 0.0 0.0 0.00 0.00 0.00 91 1008.0
20260505234616 11 159 0.0 0.0 0.00 0.00 0.00 90 1008.0
20260505233116 11 150 0.0 0.0 0.00 0.00 0.00 90 1008.0
20260505231616 12 117 0.0 0.0 0.00 0.00 0.00 90 1008.0
20260505230116 12 163 0.0 0.0 0.00 0.00 0.00 90 1008.0
20260505224616 12 316 0.0 0.0 0.00 0.00 0.00 90 1009.0
20260505223115 12 172 0.0 0.0 0.00 0.00 0.00 91 1009.0
20260505221616 12 163 0.0 0.0 0.00 0.00 0.00 91 1009.0
20260505220116 12 173 0.0 0.0 0.00 0.00 0.00 91 1009.0
20260505214616 12 161 4.8 0.0 0.00 0.00 0.00 91 1008.0
20260505213115 12 182 0.0 0.0 0.00 0.00 0.00 91 1009.0
20260505211616 12 170 1.6 0.0 0.00 0.00 0.00 90 1008.0
20260505210116 12 167 0.0 0.0 0.00 0.00 0.00 90 1008.0
20260505204615 12 144 1.6 0.0 0.00 0.00 0.00 90 1008.0
20260505203115 12 164 1.6 0.0 0.00 0.00 0.00 90 1008.0
20260505201615 13 175 3.2 0.0 0.00 0.00 0.00 90 1008.0
20260505200115 13 174 0.0 0.0 0.00 0.00 0.00 90 1008.0
20260505194615 13 179 0.0 0.0 0.00 0.00 0.00 90 1008.0
20260505193115 13 153 3.2 0.0 0.00 0.00 0.00 89 1008.0
20260505191616 13 172 0.0 0.0 0.00 0.00 0.00 89 1008.0
20260505190116 13 178 0.0 0.0 0.00 0.00 0.00 88 1008.0